Location: Lourdes
(43.1000°N, 0.0500°W)
Time: 06:12:29
(UTC+00:00)

CZ-2C R/B - Pass Details

Date: 30 November 2020
Orbit: 705 x 907 km, 98.1° (Epoch: 27 January)

Event Time Altitude Azimuth Distance (km) Brightness Sun altitude
Rises 19:18:25 0° 189° (S) 3,250 6.4 -30.7°
Reaches altitude 10° 19:20:58 10° 199° (SSW) 2,295 5.7 -31.2°
Maximum altitude 19:25:30 34° 263° (W) 1,219 4.5 -32.0°
Drops below altitude 10° 19:29:54 10° 328° (NNW) 2,220 5.7 -32.8°
Sets 19:32:21 0° 338° (NNW) 3,128 6.4 -33.3°
